This is the latest recevied weather packets stored in our database for station/object N7ZAP. If no packets are shown the sender has not sent any weather packets the latest 10 day(s).
| Time | Temp. | Humidity | Pressure | Rain* | Wind** | Luminosity | Snow |
|---|---|---|---|---|---|---|---|
| 1777026015 | 8.89° C | 22% | 1014.1 hPa | 0 mm | - | - | - |
| 1777025713 | 10.56° C | 20% | 1014 hPa | 0 mm | - | - | - |
| 1777025408 | 12.22° C | 17% | 1014 hPa | 0 mm | - | - | - |
| 1777025104 | 11.67° C | 16% | 1014.1 hPa | 0 mm | - | - | - |
| 1777024803 | 11.67° C | 16% | 1013.8 hPa | 0 mm | - | - | - |
| 1777024500 | 11.67° C | 16% | 1014 hPa | 0 mm | - | - | - |
| 1777024196 | 12.22° C | 16% | 1013.9 hPa | 0 mm | - | - | - |
| 1777023892 | 12.22° C | 16% | 1013.8 hPa | 0 mm | - | - | - |
| 1777023589 | 12.22° C | 16% | 1013.9 hPa | 0 mm | - | - | - |
| 1777023285 | 12.22° C | 16% | 1013.9 hPa | 0 mm | - | - | - |
| 1777022982 | 12.22° C | 16% | 1014 hPa | 0 mm | - | - | - |
| 1777022678 | 12.22° C | 16% | 1013.8 hPa | 0 mm | - | - | - |
| 1777022378 | 12.22° C | 16% | 1013.9 hPa | 0 mm | - | - | - |
| 1777022075 | 12.22° C | 16% | 1013.9 hPa | 0 mm | - | - | - |
| 1777021771 | 12.22° C | 17% | 1014 hPa | 0 mm | - | - | - |
| 1777021468 | 12.22° C | 16% | 1014 hPa | 0 mm | - | - | - |
| 1777021164 | 12.22° C | 16% | 1014.1 hPa | 0 mm | - | - | - |
| 1777020860 | 12.22° C | 16% | 1013.8 hPa | 0 mm | - | - | - |
| 1777020555 | 12.78° C | 16% | 1013.9 hPa | 0 mm | - | - | - |
| 1777020252 | 12.22° C | 16% | 1014 hPa | 0 mm | - | - | - |
| 1777019949 | 12.22° C | 15% | 1013.9 hPa | 0 mm | - | - | - |
| 1777019644 | 12.22° C | 16% | 1014.1 hPa | 0 mm | - | - | - |
| 1777019342 | 12.22° C | 16% | 1014 hPa | 0 mm | - | - | - |
| 1777019037 | 12.22° C | 16% | 1014 hPa | 0 mm | - | - | - |
| 1777018735 | 12.22° C | 16% | 1014.1 hPa | 0 mm | - | - | - |
* Rain latest hour (hover to see other rain measurements)
** Current wind speed in m/s (hover to see current wind gust speed)